Location: Lichtensteig
(47.3376°N, 9.0841°E)
Time: 03:45:15
(UTC+00:00)

Cosmos 2184 Rocket - Pass Details

Date: 03 March 2021
Orbit: 960 x 1001 km, 82.9° (Epoch: 16 April)

Event Time Altitude Azimuth Distance (km) Brightness Sun altitude
Rises 17:54:03 0° 186° (S) 3,629 7.1 -7.9°
Reaches altitude 10° 17:56:32 10° 186° (S) 2,689 6.4 -8.4°
Maximum altitude 18:02:42 89° 96° (E) 972 4.0 -9.4°
Drops below altitude 10° 18:08:57 10° 9° (N) 2,725 6.3 -10.5°
Sets 18:11:28 0° 10° (N) 3,682 6.9 -10.9°
